This is the latest recevied weather packets stored in our database for station/object K3HM. If no packets are shown the sender has not sent any weather packets the latest 10 day(s).
| Time | Temp. | Humidity | Pressure | Rain* | Wind** | Luminosity | Snow |
|---|---|---|---|---|---|---|---|
| 1777814309 | 4.44° C | 68% | 1016.9 hPa | 0 mm | - | 96 W/m² | - |
| 1777814006 | 4.44° C | 68% | 1016.8 hPa | 0 mm | - | 134 W/m² | - |
| 1777813703 | 4.44° C | 70% | 1017 hPa | 0 mm | - | 417 W/m² | - |
| 1777813401 | 4.44° C | 69% | 1017 hPa | 0 mm | - | 176 W/m² | - |
| 1777813098 | 3.89° C | 71% | 1017 hPa | 0 mm | - | 82 W/m² | - |
| 1777812796 | 4.44° C | 72% | 1017.1 hPa | 0 mm | - | 331 W/m² | - |
| 1777812491 | 3.89° C | 72% | 1016.9 hPa | 0 mm | - | 331 W/m² | - |
| 1777812190 | 3.89° C | 74% | 1017 hPa | 0 mm | - | 273 W/m² | - |
| 1777811888 | 3.89° C | 75% | 1016.9 hPa | 0 mm | - | 269 W/m² | - |
| 1777811586 | 3.33° C | 77% | 1016.9 hPa | 0 mm | - | 250 W/m² | - |
| 1777811281 | 2.78° C | 76% | 1016.9 hPa | 0 mm | - | 215 W/m² | - |
| 1777810979 | 2.78° C | 76% | 1016.8 hPa | 0 mm | - | 221 W/m² | - |
| 1777810675 | 2.22° C | 79% | 1016.8 hPa | 0 mm | - | 204 W/m² | - |
| 1777810373 | 2.22° C | 79% | 1016.6 hPa | 0 mm | - | 175 W/m² | - |
| 1777810068 | 2.22° C | 80% | 1016.5 hPa | 0 mm | - | 174 W/m² | - |
| 1777809766 | 1.67° C | 81% | 1016.8 hPa | 0 mm | - | 161 W/m² | - |
| 1777809463 | 1.11° C | 82% | 1016.8 hPa | 0 mm | - | 142 W/m² | - |
| 1777809161 | 1.11° C | 82% | 1016.8 hPa | 0 mm | - | 135 W/m² | - |
| 1777808859 | 0.56° C | 83% | 1016.9 hPa | 0 mm | - | 121 W/m² | - |
| 1777808555 | 0.56° C | 85% | 1016.9 hPa | 0 mm | - | 90 W/m² | - |
| 1777808252 | 0° C | 85% | 1016.9 hPa | 0 mm | - | 46 W/m² | - |
| 1777807951 | 0° C | 86% | 1016.6 hPa | 0 mm | - | 45 W/m² | - |
| 1777807648 | 0° C | 86% | 1016.4 hPa | 0 mm | - | 34 W/m² | - |
| 1777807346 | 0° C | 86% | 1016.5 hPa | 0 mm | - | 33 W/m² | - |
| 1777807041 | -0.56° C | 87% | 1016.6 hPa | 0 mm | - | 32 W/m² | - |
* Rain latest hour (hover to see other rain measurements)
** Current wind speed in m/s (hover to see current wind gust speed)